GFSCGP_con_mucape_195.txt.gz
CAPE
0 0 0 0 0 0 0 0 0 0 0 0 0 0 0 0 0 0 0 0 0 0 0 0 0 0 0 0 0 0 0 277 1220 1323 1342 1155 1360 1529 1349 1109 1033 937 674 555
0 0 0 0 0 0 0 0 0 0 0 0 0 0 0 0 0 0 0 0 0 0 0 0 0 0 0 0 0 0 0 24 799 973 1251 1149 1139 1188 1041 837 737 752 779 693
0 0 0 0 0 0 0 0 0 0 0 0 0 0 0 0 0 0 0 0 0 0 0 0 0 0 0 0 0 3 1 6 264 663 942 974 1050 1210 960 825 654 565 479 548
0 0 0 0 0 0 0 0 0 0 0 0 0 0 0 0 0 0 0 0 0 0 0 0 0 0 0 0 16 33 10 17 90 476 800 782 400 283 318 489 629 663 423 424
0 0 0 0 0 0 0 0 0 0 0 0 0 0 0 0 0 0 0 0 0 0 0 0 1 0 31 0 1 1 13 112 222 405 643 562 248 264 431 514 535 649 670 705
0 0 0 0 0 0 0 0 0 0 0 0 0 0 0 0 0 0 0 0 0 0 0 3 19 27 57 26 155 166 140 241 248 391 420 240 110 90 318 452 623 452 506 847
0 0 0 0 0 0 0 0 0 0 0 0 0 0 0 0 0 0 0 0 0 0 0 0 43 40 90 63 128 200 278 328 268 359 472 598 485 286 357 561 666 330 431 550
0 0 0 0 0 0 0 0 0 0 0 0 0 0 0 0 0 0 0 0 8 4 7 2 28 54 67 94 129 182 174 286 752 885 789 1034 908 984 1031 886 634 513 366 553
0 0 0 0 0 0 0 0 0 0 0 0 0 0 0 22 21 23 26 41 32 14 18 11 14 28 43 67 99 123 261 361 282 233 283 416 465 961 1178 1052 858 620 450 521
0 0 0 0 0 0 0 0 0 0 0 0 0 0 0 16 29 19 6 1 7 25 9 22 10 28 7 22 41 53 54 243 333 279 301 276 325 398 1153 1193 943 702 740 922
0 0 0 0 0 0 0 0 0 0 0 0 0 0 15 25 88 6 26 3 0 15 4 0 5 2 5 14 30 25 9 13 13 153 358 397 533 1010 1290 1196 879 717 624 489
0 0 0 0 0 0 0 0 0 0 0 0 0 0 0 0 124 83 0 0 3 40 38 11 4 4 1 0 1 15 10 5 0 6 491 663 988 1078 1172 1089 892 815 627 458
0 0 0 0 0 0 0 0 14 19 19 0 0 0 0 0 0 0 4 3 5 2 27 9 7 0 0 0 0 0 0 2 0 0 68 700 1155 1262 1250 996 639 673 619 413
0 0 0 0 0 0 0 0 23 35 0 0 0 0 0 0 0 2 9 12 6 5 1 0 0 0 0 0 0 0 0 0 0 0 6 347 1041 1167 748 804 939 1011 391 317
0 0 0 0 0 0 0 0 0 0 0 0 0 0 0 0 0 0 9 24 2 0 2 0 0 0 0 0 0 0 0 0 0 0 51 403 983 982 796 717 658 773 669 556
0 0 0 0 0 0 0 0 0 3 6 0 0 0 0 18 2 0 17 13 0 0 0 0 0 0 0 0 0 0 0 0 0 0 174 273 1009 897 463 246 277 543 442 238
0 3 10 0 0 0 0 0 0 0 27 79 44 1 1 3 7 5 0 0 0 0 0 0 0 0 0 0 0 0 0 0 0 1 164 157 781 617 437 234 249 467 509 259
3 18 14 0 0 0 0 5 26 6 22 27 10 11 0 2 3 0 1 0 0 0 0 0 0 0 0 0 0 0 0 0 0 0 2 28 775 445 306 246 277 315 239 246
10 24 0 0 0 0 0 20 5 0 0 1 0 0 0 16 15 0 0 0 0 0 0 0 0 0 0 0 0 0 0 0 0 0 3 2 440 463 239 383 319 269 85 68
34 13 4 0 0 0 0 21 9 0 0 0 4 0 0 0 0 0 0 0 0 0 0 0 0 0 0 0 0 0 0 0 0 1 4 2 163 198 274 324 265 192 122 223
0 0 0 0 0 0 0 12 5 0 0 0 7 4 0 0 0 0 0 0 0 0 0 0 0 0 0 0 0 0 0 0 0 5 4 35 76 93 77 52 67 107 76 25
0 0 0 0 0 0 15 9 0 10 1 0 1 23 2 0 0 0 0 0 0 0 0 0 0 0 0 0 0 0 0 0 0 9 9 73 19 3 31 127 16 39 13 0
0 0 0 0 0 0 0 0 6 3 22 6 3 1 0 0 0 0 0 0 0 0 0 0 0 0 0 0 0 0 0 0 0 5 6 39 0 29 64 146 79 29 0 0
0 0 0 0 0 0 0 0 2 8 6 3 0 0 0 0 0 0 0 0 0 0 0 0 0 0 0 0 0 0 0 0 0 15 21 26 53 28 28 78 49 16 0 0
0 0 0 0 0 0 0 4 10 2 1 0 0 0 0 0 0 0 0 0 0 0 2 2 0 0 0 0 0 0 0 0 5 44 69 80 26 16 54 31 12 0 1 18
0 0 0 0 0 0 2 6 11 0 0 0 0 0 0 0 0 0 0 0 0 0 0 6 6 0 0 0 0 0 0 11 47 35 125 64 9 9 34 1 0 0 0 0

GFSCGP_con_mucape_198.txt.gz
CAPE
0 0 0 0 0 0 0 0 0 0 0 0 0 0 0 0 0 0 0 0 0 0 0 0 0 0 0 0 0 0 0 0 1168 1763 1961 1554 1583 1459 1165 1051 1100 924 779 765
0 0 0 0 0 0 0 0 0 0 0 0 0 0 0 0 0 0 0 0 0 0 0 0 0 0 0 0 0 0 0 0 740 1507 1642 1332 1229 1118 1233 1249 1244 1101 1111 977
0 0 0 0 0 0 0 0 0 0 0 0 0 0 0 0 0 0 0 0 0 0 0 0 0 0 0 0 0 0 0 1 206 1175 1479 1394 1184 969 922 781 614 471 523 551
0 0 0 0 0 0 0 0 0 0 0 0 0 0 0 0 0 0 0 0 0 0 0 0 0 0 0 0 0 0 0 5 37 815 1402 1370 1131 699 466 466 503 533 547 526
0 0 0 0 0 0 0 0 0 0 0 0 0 0 0 0 0 0 0 0 0 0 0 0 0 0 0 0 9 1 0 33 132 635 1190 1273 861 437 566 600 470 582 438 504
0 0 0 0 0 0 0 0 0 0 0 0 0 0 0 0 0 0 0 0 0 0 0 0 0 0 0 14 46 159 84 152 243 506 785 1032 782 354 359 512 543 448 326 462
0 0 0 0 0 0 0 0 0 0 0 0 0 0 0 0 0 0 0 0 0 3 6 8 1 0 4 28 40 173 432 495 323 478 649 661 490 345 272 382 771 676 328 500
0 0 0 0 0 0 0 0 0 0 0 0 0 0 0 0 0 0 0 1 0 0 0 1 5 14 6 27 48 157 253 525 624 684 825 955 801 654 541 677 949 681 515 365
0 0 0 0 0 0 0 0 0 0 0 0 0 0 0 0 19 9 16 4 0 0 0 0 0 6 50 38 65 81 173 332 355 380 474 498 446 670 1214 1275 1247 994 771 500
0 0 0 0 0 0 0 0 0 0 0 0 0 0 0 0 37 59 50 20 6 0 0 0 0 11 34 28 59 40 41 67 182 435 460 482 506 666 943 1447 1386 1153 866 784
0 0 0 0 0 0 0 0 0 0 0 0 0 0 0 0 1 0 0 0 0 0 0 31 12 0 9 1 17 29 8 4 4 109 567 601 756 866 1127 1109 1162 1079 769 552
0 0 0 0 0 0 0 0 0 0 0 0 0 0 0 0 0 0 0 0 0 0 15 36 22 10 12 0 1 22 3 2 0 2 123 526 603 789 925 1123 1045 874 487 684
0 0 0 0 0 0 0 0 0 28 30 0 0 0 0 0 0 1 0 0 0 1 36 23 0 0 3 0 0 3 2 0 0 0 39 180 350 647 923 827 910 635 619 579
0 0 0 0 0 0 0 0 1 14 4 3 0 0 0 0 0 3 0 0 0 8 89 20 5 17 10 6 2 37 10 0 0 0 11 127 268 562 787 686 693 563 571 585
0 0 0 0 0 0 0 0 0 0 0 2 0 1 0 0 0 1 0 0 1 1 11 3 1 0 0 0 0 0 0 0 0 0 0 98 185 168 563 244 394 380 403 269
0 0 0 0 0 0 0 0 0 0 0 0 0 2 10 1 1 2 0 0 0 0 0 0 0 0 0 0 0 0 0 0 0 0 6 21 86 78 252 382 248 178 260 222
0 0 0 0 0 0 0 0 7 25 29 40 50 13 13 0 0 1 1 1 0 0 0 0 0 0 0 0 0 0 0 0 0 0 1 4 2 29 217 245 94 262 250 210
2 0 0 0 0 0 0 0 22 3 0 4 0 1 3 0 5 0 0 0 0 0 0 0 0 0 0 0 0 0 0 0 0 0 5 2 4 5 372 235 153 175 233 124
0 0 0 0 0 0 0 0 0 0 0 0 0 28 3 0 0 0 0 0 0 0 0 0 0 0 0 0 0 0 0 0 0 0 0 2 34 48 146 142 179 236 145 61
5 0 0 0 0 0 0 3 3 1 0 3 2 0 0 1 0 0 0 0 0 0 0 0 0 0 0 0 0 0 0 0 0 0 2 4 6 4 73 45 135 197 106 11
0 0 0 0 0 0 0 1 1 0 0 0 0 5 12 11 0 0 0 0 0 0 0 0 0 0 0 0 0 0 0 0 0 0 0 1 12 36 126 123 86 58 80 81
0 0 0 0 0 0 10 7 0 0 0 0 2 4 0 0 0 0 0 0 0 0 0 0 0 0 0 0 0 0 0 0 0 0 0 8 9 59 109 103 119 20 18 3
0 0 0 0 0 0 0 0 0 0 2 2 2 6 0 0 0 0 0 0 0 0 0 0 0 0 0 0 0 0 0 0 0 0 1 7 89 3 78 100 53 7 0 0
0 0 0 0 0 0 0 0 0 10 9 1 0 0 0 0 0 0 0 0 0 0 0 0 0 0 0 0 0 0 0 0 0 0 7 26 1 10 54 47 36 3 0 0
0 0 0 0 0 0 0 0 0 0 0 0 0 0 0 0 0 0 0 0 0 0 0 0 1 0 0 0 0 0 0 0 0 5 7 13 9 45 15 14 1 0 0 0
0 0 0 0 0 0 0 0 0 0 0 0 0 0 0 0 0 0 0 0 0 0 0 0 11 0 0 0 0 0 0 0 1 14 7 52 19 23 2 2 0 0 0 0

GFSCGP_con_mucape_201.txt.gz
CAPE
0 0 0 0 0 0 0 0 0 0 0 0 0 0 0 0 0 0 0 0 0 0 0 0 0 0 0 0 0 0 0 0 53 1644 1746 2230 1974 2151 1994 1823 1954 1627 1453 1231
0 0 0 0 0 0 0 0 0 0 0 0 0 0 0 0 0 0 0 0 0 0 0 0 0 0 0 0 0 0 0 0 0 658 1958 2219 2139 2053 2002 2079 2097 1957 1833 1594
0 0 0 0 0 0 0 0 0 0 0 0 0 0 0 0 0 0 0 0 0 0 0 0 0 0 0 0 0 0 0 0 0 663 1920 2367 2141 1961 2031 1967 1724 1688 1755 1743
0 0 0 0 0 0 0 0 0 0 0 0 0 0 0 0 0 0 0 0 0 0 0 0 0 0 0 0 0 0 0 0 0 478 1248 2145 1930 1746 1415 1277 989 1120 1394 1544
0 0 0 0 0 0 0 0 0 0 0 0 0 0 0 0 0 0 0 0 0 0 0 0 0 0 0 0 0 1 43 181 24 599 1376 1970 1882 1337 1111 1254 1387 1546 1657 1621
0 0 0 0 0 0 0 0 0 0 0 0 0 0 0 0 0 0 0 0 0 0 0 1 0 0 0 0 0 40 114 245 494 755 1543 2124 1962 1453 1332 1438 1352 1281 1218 1242
0 0 0 0 0 0 0 0 0 0 0 0 0 0 0 0 0 0 0 3 0 6 0 1 7 0 4 0 20 70 135 336 411 818 1141 1445 1406 1418 1492 1625 1584 1609 1319 1199
0 0 0 0 0 0 0 0 0 0 0 0 0 0 0 0 0 29 66 66 31 0 0 4 49 4 0 2 12 71 109 212 594 618 1021 1499 1427 1191 1266 1355 1438 1756 1790 1499
0 0 0 0 0 0 0 0 0 0 0 0 0 0 0 0 58 116 100 37 19 29 10 35 95 43 9 24 3 18 45 76 489 985 1050 1064 1170 1364 1601 2173 2341 2198 2109 1750
0 0 0 0 0 0 0 0 0 10 0 0 0 0 0 0 26 5 99 10 13 13 7 98 139 100 64 2 0 11 26 40 243 645 1214 1359 1480 1559 1807 2054 2026 1910 1448 1074
0 0 0 0 0 0 0 0 0 0 1 0 0 0 0 3 1 22 32 27 9 0 0 14 236 314 266 4 0 5 8 16 4 192 750 1271 1332 1281 1381 1352 1002 1066 864 718
0 0 0 0 0 0 0 0 2 29 0 15 157 0 0 0 14 9 6 15 11 1 0 0 0 2 1 144 1 0 0 9 0 0 401 816 1009 1002 870 664 837 662 713 693
0 0 0 0 0 0 0 0 0 12 9 2 56 1 55 25 79 25 32 26 27 0 5 12 5 10 7 0 0 0 0 2 0 0 6 159 750 802 772 494 548 496 506 404
0 0 0 0 0 0 0 0 0 41 1 37 54 99 92 132 81 63 70 91 1 0 0 0 0 0 0 0 0 0 0 4 1 6 5 3 525 792 715 186 291 276 331 159
0 0 0 0 0 0 0 0 0 14 7 23 51 128 145 185 86 8 54 12 1 2 0 0 0 0 0 0 0 0 0 0 0 0 1 96 118 239 149 9 164 278 63 55
0 0 0 0 0 0 1 0 0 0 24 60 113 152 0 28 0 44 40 6 1 0 0 0 0 0 0 0 1 0 0 0 0 0 3 5 4 5 4 4 161 152 60 105
0 0 0 0 0 0 0 0 0 0 62 129 136 75 90 8 15 33 14 12 13 0 0 0 0 0 0 0 0 0 0 0 0 0 0 10 9 3 7 7 257 137 91 203
0 0 0 0 0 0 0 0 0 6 1 46 15 23 22 1 1 24 16 30 7 0 4 1 0 0 0 0 0 0 0 0 0 0 0 39 25 1 8 40 123 67 70 24
0 0 0 0 0 0 0 0 0 0 2 1 12 37 47 47 26 3 1 17 14 20 0 0 0 0 0 0 0 0 0 0 0 0 11 26 1 3 15 85 195 42 81 73
0 1 0 0 0 0 0 6 3 0 0 37 0 0 49 39 0 0 0 5 0 0 0 0 0 0 0 0 0 0 0 0 0 0 0 2 2 5 40 6 54 47 77 57
0 0 0 0 0 0 0 0 0 0 0 0 0 11 31 0 1 0 0 0 0 0 0 0 0 0 0 0 0 0 0 0 0 0 0 1 2 49 11 11 119 44 4 5
0 0 0 0 0 0 0 0 0 0 0 0 0 0 10 0 0 0 0 0 0 0 0 0 0 0 0 0 0 0 0 0 0 0 0 1 5 120 73 110 57 1 0 0
0 0 0 0 0 7 2 0 0 0 0 0 31 52 0 0 0 0 0 0 0 0 0 0 0 0 0 0 0 0 0 0 0 0 0 14 23 79 71 35 1 3 0 0
0 0 0 0 0 0 0 0 0 0 0 0 0 0 0 0 0 0 0 0 0 0 0 0 0 0 0 0 0 0 0 0 0 0 15 16 6 46 6 7 2 0 0 0
0 0 0 0 0 0 0 0 0 0 0 0 0 0 0 0 0 0 0 0 0 0 0 0 0 0 0 0 0 0 0 0 0 9 20 7 40 4 7 0 0 0 0 0
5 6 0 0 0 0 0 0 0 0 0 0 0 0 0 0 0 0 0 0 0 0 0 0 0 0 0 0 0 0 0 0 4 17 82 75 11 26 0 0 0 0 0 0

GFSCGP_con_mucape_207.txt.gz
CAPE
0 0 0 0 0 0 0 0 0 0 0 0 0 0 0 0 0 0 0 0 0 0 0 0 0 0 0 0 16 73 240 854 587 401 176 62 0 6 245 756 1745 1978 875 1153
0 0 0 0 0 0 0 0 0 0 0 0 0 0 0 0 0 0 0 0 0 0 0 0 0 4 4 1 0 49 191 693 770 446 511 418 678 32 181 608 1542 1756 1374 1727
0 0 0 0 0 0 0 0 0 0 0 0 0 0 0 0 0 0 0 0 0 0 0 4 5 9 16 18 13 0 119 504 1342 1105 591 659 950 1407 358 473 1272 1307 1545 1729
0 0 0 0 0 0 0 0 0 0 0 0 0 0 0 1 0 2 0 2 11 9 2 0 4 11 14 17 28 52 51 344 538 1790 1237 1467 910 1164 503 545 668 1085 2224 2105
0 0 0 0 0 0 0 0 0 0 0 0 0 0 1 3 1 8 32 21 12 56 24 16 6 7 14 25 41 41 92 177 482 1021 1993 1089 1837 1153 1062 1090 1844 1693 1411 1786
0 0 0 0 0 0 0 0 0 0 0 0 34 0 1 9 12 4 16 8 15 74 69 41 42 56 58 76 83 86 95 142 252 734 795 2027 2086 2577 2232 1654 1057 705 838 1532
0 0 0 0 0 0 0 0 0 0 0 0 15 3 5 5 6 0 1 4 29 77 63 70 55 66 70 93 113 94 145 176 160 289 641 1306 1902 2154 2454 2238 1201 1523 657 621
0 0 0 0 0 0 0 0 0 0 0 0 0 8 51 34 13 0 41 91 185 187 69 69 71 96 211 192 271 128 284 296 171 196 331 1127 1575 2297 2196 2353 2089 1861 1987 2401
0 0 0 0 0 0 0 0 0 0 2 0 4 6 2 39 5 15 72 82 108 139 106 111 118 101 168 136 254 136 380 360 259 150 152 336 1051 1478 1721 1974 1992 1549 1677 1443
0 0 0 0 0 0 0 0 0 5 0 0 0 0 11 0 2 72 164 205 196 157 164 204 227 160 115 99 68 216 229 320 318 141 49 36 212 709 1141 1336 657 1184 1432 1357
0 0 0 0 0 0 0 0 1 9 30 0 0 0 27 17 105 198 285 270 51 2 259 319 237 239 209 113 58 206 62 132 144 156 48 13 37 102 610 1152 621 670 992 806
0 0 0 0 0 0 0 0 4 94 0 15 216 20 74 79 124 224 193 248 89 0 232 172 162 262 257 100 170 120 233 192 101 93 38 17 9 30 627 1015 747 378 405 52
0 0 0 0 0 0 4 3 11 14 43 61 127 17 87 83 169 375 154 263 273 40 0 8 110 38 101 19 27 37 41 26 24 52 35 26 2 132 332 388 179 0 0 0
0 0 0 0 0 0 0 0 0 8 166 23 67 64 90 199 312 278 215 124 250 181 8 75 79 103 66 62 43 30 39 46 20 21 39 11 32 105 149 50 0 0 0 1
0 0 0 0 0 0 0 0 0 8 24 116 32 76 117 218 122 107 143 12 46 55 45 35 70 81 19 33 30 26 27 16 5 25 27 50 74 147 113 6 0 0 0 0
2 0 0 0 0 0 0 0 0 0 6 22 46 74 81 33 86 51 5 18 29 4 63 52 18 30 42 38 18 18 22 0 0 0 43 53 61 91 17 0 0 0 1 0
2 0 0 0 0 0 0 2 1 0 2 14 59 57 72 59 20 41 36 27 45 54 39 57 37 35 28 19 21 0 0 0 0 0 47 45 89 80 0 0 1 0 0 13
14 0 0 0 0 0 10 7 0 1 4 41 51 42 30 16 10 24 31 27 34 34 0 20 16 17 18 0 0 0 0 0 0 0 46 63 81 0 1 4 7 5 10 34
33 15 0 0 0 0 6 33 22 12 14 38 51 16 5 3 19 18 50 31 33 0 0 0 0 0 0 0 0 0 0 0 0 0 22 62 18 0 3 10 8 23 14 25
27 54 112 0 0 0 26 38 37 30 33 31 52 34 25 36 62 36 39 47 0 0 0 0 0 0 0 0 0 0 0 0 0 0 0 11 1 5 10 15 42 44 0 0
0 0 0 0 0 0 49 21 23 8 81 22 15 34 53 65 75 77 65 0 0 0 0 0 0 0 0 0 0 0 0 0 0 0 1 0 0 13 22 38 6 35 0 0
7 6 44 76 0 0 64 47 53 73 58 39 51 56 55 61 73 66 0 0 0 0 0 0 0 0 0 0 0 0 0 0 0 0 0 0 5 5 31 5 4 0 0 0
0 38 157 46 49 90 44 56 42 135 26 38 43 47 29 42 47 0 0 0 0 0 0 0 0 0 0 0 0 0 0 0 0 0 0 0 3 35 9 0 0 0 71 37
37 39 110 78 30 35 59 41 43 66 50 55 61 61 0 0 0 0 0 0 0 0 0 0 0 0 0 3 6 0 0 0 0 0 6 9 1 0 0 0 54 57 34 39
48 51 55 45 56 63 61 69 65 76 33 13 7 0 0 0 0 0 0 0 0 0 0 0 0 0 0 2 0 0 0 0 0 9 9 0 1 0 0 1 14 4 4 7
63 88 142 157 68 93 89 93 86 11 35 0 0 0 0 0 0 0 0 0 0 0 0 0 0 0 0 0 0 0 0 0 3 2 0 0 0 3 18 5 0 0 0 0

GFSCGP_con_mucape_210.txt.gz
CAPE
0 0 0 0 0 0 0 0 0 0 0 0 0 0 0 0 0 0 0 0 0 0 0 1 3 6 21 55 245 442 326 514 546 786 694 341 225 257 192 654 1205 1419 2299 2210
0 0 0 0 0 0 0 0 0 0 0 0 0 0 0 0 0 0 0 0 0 0 0 9 13 40 163 304 427 495 486 511 378 647 629 1020 430 144 319 511 598 1518 1865 2247
0 0 0 0 0 0 0 0 0 0 0 0 0 0 0 0 0 0 0 0 0 0 0 0 0 15 53 168 529 634 704 598 316 746 488 887 817 741 599 861 1300 1945 1265 935
0 0 0 0 0 0 0 0 0 0 0 0 0 0 5 0 0 0 0 0 5 16 21 1 0 19 37 41 284 615 905 616 319 714 477 800 1521 1084 844 1094 689 2451 1288 592
0 0 0 0 0 0 0 0 0 0 0 0 0 3 18 2 3 7 26 42 7 1 35 4 3 7 36 59 143 432 653 702 586 497 633 764 1101 1410 1643 1899 1613 1613 762 555
0 0 0 0 0 0 0 0 0 0 0 0 1 0 0 0 14 3 13 8 6 25 74 46 37 69 61 125 232 195 612 926 468 484 469 562 771 1037 1401 1596 1598 656 516 171
0 0 0 0 0 0 0 0 0 0 0 0 0 0 31 0 0 0 0 0 12 83 105 88 36 41 122 212 320 163 233 449 494 322 296 429 298 553 889 1285 1160 971 529 285
0 0 0 0 0 0 0 0 0 0 0 0 0 0 8 0 0 0 0 0 1 9 25 3 79 54 93 153 378 122 74 33 153 426 331 297 399 172 541 842 1122 968 993 276
0 0 0 0 0 0 0 0 0 0 0 0 0 0 15 0 0 0 11 8 18 49 14 2 37 69 172 133 135 0 4 127 489 272 441 357 194 203 286 426 768 654 505 541
0 0 0 0 0 0 0 0 0 1 0 0 0 0 4 0 2 3 13 23 44 38 44 169 203 53 43 246 333 291 137 362 485 525 396 256 252 107 422 267 430 541 742 379
0 0 0 0 0 0 0 0 0 0 0 0 0 0 1 43 53 66 75 7 47 99 47 11 23 0 0 0 197 398 372 258 352 305 384 427 156 178 309 127 203 210 93 24
0 0 0 0 0 0 0 0 0 36 0 0 29 0 12 20 39 48 40 29 3 27 0 0 8 9 0 18 41 121 251 122 161 210 137 273 339 228 311 235 73 1 7 1
0 0 0 0 0 0 0 2 0 7 59 0 0 0 37 41 67 127 73 2 0 10 11 47 146 211 50 46 63 6 58 11 37 56 38 23 97 358 145 173 1 3 0 0
0 0 0 0 0 0 0 0 0 1 67 0 2 11 42 100 114 67 15 2 0 1 31 52 44 44 14 36 59 33 6 0 0 0 10 23 25 219 244 27 0 0 1 0
0 0 0 0 0 0 0 0 0 0 1 11 4 24 95 49 25 28 2 7 1 0 8 26 31 41 46 0 28 3 19 9 11 19 13 14 20 90 40 15 0 0 2 0
0 0 0 0 0 0 0 0 0 0 0 13 27 30 73 112 16 13 2 0 4 5 3 4 2 4 24 33 33 7 1 32 40 0 0 0 21 33 31 1 0 4 8 3
0 18 0 0 0 0 0 0 0 0 0 8 38 49 59 23 0 2 6 15 4 9 14 11 17 0 0 0 0 0 0 0 0 0 0 31 55 18 26 0 2 7 8 10
0 8 0 0 0 0 0 0 0 0 3 23 18 87 32 12 1 4 15 11 3 6 26 13 0 0 0 0 0 0 0 0 0 0 0 49 8 24 7 0 1 7 14 14
4 23 15 0 0 0 0 2 40 29 2 62 30 3 1 6 4 0 46 15 11 21 35 0 0 0 0 0 0 0 0 0 0 0 0 13 16 15 4 0 6 15 12 6
19 19 6 0 0 0 0 6 15 17 6 48 34 17 25 24 58 0 24 26 16 46 0 0 0 0 0 0 0 0 0 0 0 0 0 8 9 0 2 11 18 7 2 0
41 22 0 0 0 0 31 19 11 16 55 18 6 0 3 31 56 58 60 31 18 0 0 0 0 0 0 0 0 0 0 0 0 0 5 4 0 6 13 15 3 2 0 0
29 92 103 116 0 12 20 14 34 61 50 38 19 14 20 44 10 24 12 11 0 0 0 0 0 0 0 0 0 0 0 0 0 0 4 0 9 4 4 3 0 0 27 55
61 67 180 69 42 211 149 121 158 270 52 35 30 32 17 8 28 11 0 0 0 0 0 0 0 0 0 0 0 0 0 0 0 0 0 1 1 7 0 0 0 66 75 59
10 36 119 50 25 56 52 58 99 65 57 73 46 2 5 25 0 0 0 0 0 0 0 0 0 0 0 1 3 0 0 0 0 0 0 4 0 0 0 21 1 19 36 28
24 37 19 45 29 90 46 93 96 36 48 36 7 1 1 0 0 0 0 0 0 0 0 0 0 0 6 4 0 0 0 0 1 8 0 0 0 8 3 1 4 2 1 0
43 56 165 107 88 88 60 86 97 67 1 3 4 1 0 0 0 0 0 0 0 0 0 0 0 0 1 0 0 0 0 3 9 1 0 0 31 10 0 0 0 0 0 0